When you browse on this site, cookies collect data to enhance your experience and personalize the content and advertising you see.
Visit our Privacy Policy to learn more. By continuing to use the site, you agree to this use of cookies and data.
EN

Hourly Weather Punta Gorda

Today, 9 July, Thursday

Time Temperature Precipitation Wind Pressure Humidity
00:00 +26°C° 0.2 mm 3 mps 759 mmHg 96%
01:00 +26°C° 0.4 mm 2 mps 759 mmHg 96%
02:00 +26°C° 0.4 mm 2 mps 759 mmHg 96%
03:00 +26°C° 0.4 mm 2 mps 758 mmHg 96%
04:00 +26°C° 0.5 mm 2 mps 758 mmHg 96%
05:00 +26°C° 0.5 mm 2 mps 759 mmHg 95%
06:00 +26°C° 0.5 mm 1 mps 759 mmHg 94%
07:00 +27°C° 0.2 mm 1 mps 759 mmHg 88%
08:00 +29°C° 0.2 mm 2 mps 759 mmHg 82%
09:00 +30°C° 0.2 mm 2 mps 760 mmHg 76%
10:00 +32°C° 0.2 mm 2 mps 759 mmHg 69%
11:00 +34°C° 0.2 mm 3 mps 759 mmHg 63%
12:00 +35°C° 0.2 mm 4 mps 759 mmHg 57%
13:00 +35°C° 0 mm 4 mps 758 mmHg 55%
14:00 +35°C° 0 mm 4 mps 757 mmHg 54%
15:00 +35°C° 0 mm 4 mps 757 mmHg 53%
16:00 +34°C° 0 mm 4 mps 757 mmHg 59%
17:00 +32°C° 0 mm 4 mps 757 mmHg 65%
18:00 +30°C° 0 mm 4 mps 758 mmHg 72%
19:00 +29°C° 0 mm 3 mps 758 mmHg 78%
20:00 +28°C° 0 mm 3 mps 759 mmHg 85%
21:00 +27°C° 0 mm 3 mps 759 mmHg 92%
22:00 +26°C° 0.4 mm 2 mps 759 mmHg 94%
23:00 +26°C° 0.4 mm 2 mps 759 mmHg 95%

Tomorrow, 10 July, Friday

Time Temperature Precipitation Wind Pressure Humidity
00:00 +26°C° 0.4 mm 2 mps 759 mmHg 96%
01:00 +26°C° 0.3 mm 1 mps 759 mmHg 96%
02:00 +26°C° 0.3 mm 1 mps 759 mmHg 95%
03:00 +26°C° 0.3 mm 1 mps 758 mmHg 94%
04:00 +26°C° 1 mm 1 mps 758 mmHg 94%
05:00 +26°C° 1 mm 1 mps 759 mmHg 94%
06:00 +26°C° 1 mm 1 mps 759 mmHg 94%
07:00 +27°C° 0.8 mm 1 mps 759 mmHg 91%
08:00 +29°C° 0.8 mm 1 mps 760 mmHg 88%
09:00 +30°C° 0.8 mm 1 mps 760 mmHg 85%
10:00 +31°C° 0.4 mm 2 mps 760 mmHg 77%
11:00 +32°C° 0.4 mm 2 mps 760 mmHg 68%
12:00 +35°C° 0.4 mm 3 mps 759 mmHg 60%
13:00 +35°C° 0 mm 4 mps 759 mmHg 58%
14:00 +35°C° 0 mm 4 mps 758 mmHg 57%
15:00 +36°C° 0 mm 4 mps 758 mmHg 56%
16:00 +34°C° 0 mm 4 mps 758 mmHg 62%
17:00 +33°C° 0 mm 4 mps 758 mmHg 69%
18:00 +30°C° 0 mm 4 mps 758 mmHg 75%
19:00 +29°C° 0.3 mm 4 mps 759 mmHg 82%
20:00 +28°C° 0.3 mm 4 mps 759 mmHg 89%
21:00 +27°C° 0.3 mm 4 mps 760 mmHg 95%
22:00 +27°C° 1.3 mm 3 mps 760 mmHg 96%
23:00 +27°C° 1.3 mm 3 mps 760 mmHg 96%

Day after tomorrow, 11 July, Saturday

Time Temperature Precipitation Wind Pressure Humidity
00:00 +27°C° 1.3 mm 3 mps 760 mmHg 97%
01:00 +26°C° 0.7 mm 3 mps 760 mmHg 97%
02:00 +26°C° 0.7 mm 3 mps 759 mmHg 97%
03:00 +26°C° 0.7 mm 2 mps 759 mmHg 97%
04:00 +26°C° 0.1 mm 2 mps 759 mmHg 97%
05:00 +26°C° 0.1 mm 2 mps 759 mmHg 97%
06:00 +26°C° 0.1 mm 2 mps 759 mmHg 97%
07:00 +28°C° 0.1 mm 2 mps 760 mmHg 89%
08:00 +29°C° 0.1 mm 2 mps 760 mmHg 82%
09:00 +31°C° 0.1 mm 2 mps 760 mmHg 75%
10:00 +33°C° 0.1 mm 3 mps 760 mmHg 68%
11:00 +34°C° 0.1 mm 3 mps 759 mmHg 62%
12:00 +35°C° 0.1 mm 4 mps 759 mmHg 56%
13:00 +35°C° 0 mm 4 mps 759 mmHg 54%
14:00 +36°C° 0 mm 4 mps 758 mmHg 52%
15:00 +36°C° 0 mm 5 mps 757 mmHg 50%
16:00 +34°C° 0 mm 5 mps 758 mmHg 57%
17:00 +33°C° 0 mm 5 mps 758 mmHg 64%
18:00 +30°C° 0 mm 4 mps 758 mmHg 71%
19:00 +29°C° 0.2 mm 4 mps 759 mmHg 79%
20:00 +28°C° 0.2 mm 4 mps 760 mmHg 86%
21:00 +27°C° 0.2 mm 3 mps 760 mmHg 93%
22:00 +26°C° 0.3 mm 3 mps 760 mmHg 94%
23:00 +26°C° 0.3 mm 3 mps 760 mmHg 95%

12 July, Sunday

Time Temperature Precipitation Wind Pressure Humidity
00:00 +26°C° 0.3 mm 2 mps 760 mmHg 95%
01:00 +26°C° 0.4 mm 2 mps 760 mmHg 95%
02:00 +26°C° 0.4 mm 2 mps 760 mmHg 96%
03:00 +26°C° 0.4 mm 1 mps 759 mmHg 96%
04:00 +26°C° 0.2 mm 1 mps 759 mmHg 96%
05:00 +26°C° 0.2 mm 1 mps 759 mmHg 96%
06:00 +26°C° 0.2 mm 1 mps 759 mmHg 97%
07:00 +27°C° 0.2 mm 1 mps 760 mmHg 92%
08:00 +28°C° 0.2 mm 2 mps 760 mmHg 88%
09:00 +30°C° 0.2 mm 2 mps 760 mmHg 83%
10:00 +31°C° 0.1 mm 2 mps 760 mmHg 74%
11:00 +32°C° 0.1 mm 2 mps 760 mmHg 64%
12:00 +35°C° 0.1 mm 2 mps 759 mmHg 55%
13:00 +35°C° 0 mm 3 mps 759 mmHg 53%
14:00 +35°C° 0 mm 4 mps 758 mmHg 51%
15:00 +35°C° 0 mm 4 mps 757 mmHg 50%
16:00 +34°C° 0 mm 4 mps 758 mmHg 57%
17:00 +32°C° 0 mm 4 mps 758 mmHg 64%
18:00 +30°C° 0 mm 4 mps 758 mmHg 71%
19:00 +29°C° 0 mm 3 mps 759 mmHg 78%
20:00 +27°C° 0 mm 3 mps 759 mmHg 85%
21:00 +26°C° 0 mm 2 mps 760 mmHg 92%
22:00 +26°C° 0.1 mm 2 mps 760 mmHg 93%
23:00 +26°C° 0.1 mm 2 mps 760 mmHg 93%

13 July, Monday

Time Temperature Precipitation Wind Pressure Humidity
00:00 +26°C° 0.1 mm 2 mps 760 mmHg 94%
01:00 +26°C° 0.3 mm 1 mps 760 mmHg 94%
02:00 +26°C° 0.3 mm 1 mps 759 mmHg 95%
03:00 +25°C° 0.3 mm 1 mps 759 mmHg 96%
04:00 +26°C° 0.1 mm 1 mps 759 mmHg 96%
05:00 +26°C° 0.1 mm 1 mps 759 mmHg 96%
06:00 +26°C° 0.1 mm 1 mps 759 mmHg 96%
07:00 +27°C° 0.1 mm 1 mps 759 mmHg 90%
08:00 +28°C° 0.1 mm 1 mps 760 mmHg 85%
09:00 +30°C° 0.1 mm 1 mps 760 mmHg 79%
10:00 +30°C° 0.2 mm 2 mps 760 mmHg 77%
11:00 +31°C° 0.2 mm 2 mps 759 mmHg 75%
12:00 +32°C° 0.2 mm 2 mps 759 mmHg 73%
13:00 +33°C° 0.1 mm 3 mps 759 mmHg 68%
14:00 +34°C° 0.1 mm 4 mps 758 mmHg 63%
15:00 +35°C° 0.1 mm 4 mps 758 mmHg 57%
16:00 +33°C° 0 mm 4 mps 758 mmHg 63%
17:00 +32°C° 0 mm 4 mps 758 mmHg 68%
18:00 +30°C° 0 mm 4 mps 758 mmHg 74%
19:00 +29°C° 0.2 mm 4 mps 759 mmHg 80%
20:00 +28°C° 0.2 mm 4 mps 760 mmHg 87%
21:00 +26°C° 0.2 mm 3 mps 760 mmHg 94%
22:00 +26°C° 0.4 mm 3 mps 760 mmHg 95%
23:00 +26°C° 0.4 mm 3 mps 760 mmHg 95%

14 July, Tuesday

Time Temperature Precipitation Wind Pressure Humidity
00:00 +26°C° 0.4 mm 2 mps 760 mmHg 96%
01:00 +26°C° 0.4 mm 2 mps 759 mmHg 96%
02:00 +26°C° 0.4 mm 2 mps 759 mmHg 97%
03:00 +26°C° 0.4 mm 1 mps 759 mmHg 97%
04:00 +26°C° 0.4 mm 1 mps 759 mmHg 97%
05:00 +26°C° 0.4 mm 1 mps 759 mmHg 97%
06:00 +26°C° 0.4 mm 1 mps 759 mmHg 97%
07:00 +27°C° 0.3 mm 1 mps 759 mmHg 93%
08:00 +29°C° 0.3 mm 2 mps 759 mmHg 90%
09:00 +30°C° 0.3 mm 2 mps 760 mmHg 86%
10:00 +31°C° 0.5 mm 2 mps 759 mmHg 82%
11:00 +31°C° 0.5 mm 3 mps 759 mmHg 79%
12:00 +33°C° 0.5 mm 4 mps 758 mmHg 75%
13:00 +33°C° 0.7 mm 4 mps 758 mmHg 74%
14:00 +33°C° 0.7 mm 4 mps 758 mmHg 74%
15:00 +33°C° 0.7 mm 4 mps 757 mmHg 73%
16:00 +32°C° 0.8 mm 4 mps 758 mmHg 77%
17:00 +30°C° 0.8 mm 4 mps 758 mmHg 80%
18:00 +29°C° 0.8 mm 4 mps 758 mmHg 84%
19:00 +28°C° 1 mm 4 mps 759 mmHg 87%
20:00 +27°C° 1 mm 3 mps 759 mmHg 89%
21:00 +26°C° 1 mm 3 mps 760 mmHg 92%
22:00 +26°C° 1 mm 3 mps 760 mmHg 92%
23:00 +26°C° 1 mm 2 mps 759 mmHg 93%
Show more